sat.trackr.live / text

‹ back to catalog

STARLINK-31358

NORAD 58977 · 2024-031N

PAYLOAD ACTIVE UNKNOWN

§ Identity

Operator
Country
US
Launch date
2024-02-15
Launch site
AFWTR
Launch vehicle
Mass (kg)
RCS (m²)

Purposes: comms

External: N2YO · Heavens-Above · Gunter

§ Orbital elements

Epoch: 2026-09-20T22:43:12.338976Z

Period
93.85 min
Inclination
53.1583°
Eccentricity
0.0001219
Mean motion
15.34391636 rev/d
Perigee alt
461.9 km
Apogee alt
463.6 km
Semi-major
6,840.9 km
B*
1.3763e-4
RAAN
107.9083°
Arg perigee
87.5635°
Mean anomaly
272.5507°
Rev number
14,643

§ Raw data

STARLINK-313581 58977U 24031N   26263.94667059  .00004275  00000+0  13763-3 0  99912 58977  53.1583 107.9083 0001219  87.5635 272.5507 15.34391636146435

JSON: /api/v1/satellites/58977 · /tle

For live sub-satellite position, see the globe view (requires WebGL).

§ Visibility from observer

Set your observer location to see the next 7 days of passes ≥ 10°. The values pass through the URL so the page stays shareable.

No JS? Fill the form by hand. The geolocation button needs JavaScript.